Flag for Germany Weather past 2 weeks in Winsen (Luhe), Lower Saxony, Germany

43 °F

Passing clouds.

Feels Like: 37 °F
Forecast: 38 / 45 °F
Wind: 9 mph from Southwest

Location: Hamburg-Finkenwerder

Current Time: Nov 27, 2015 at 2:59:05 PM

Latest Report: Nov 27, 2015 at 2:20 PM

Visibility: N/A

Pressure: 29.92 "Hg

Humidity: 93%

Dew point: 41 °F

Location of Winsen (Luhe)Location

Historic Weather in Winsen (Luhe) — Graph


Winsen (Luhe) temperature yesterday

Maximum temperature yesterday: 46 °F (at 12:50 PM)
Minimum temperature yesterday: 36 °F (at 7:50 AM)
Average temperature yesterday: 40 °F

Past Weeks' High & Low Weather Summary

High57 °F (Nov 12, 1:20 PM)100% (Nov 12, 5:20 PM)30.21 "Hg (Nov 12, 5:20 PM)
Low32 °F (Nov 23, 8:20 AM)63% (Nov 13, 2:20 PM)29.33 "Hg (Nov 21, 8:50 AM)
Average46 °F92%29.80 "Hg
* Reported Nov 12 1:20 PM — Nov 27 1:20 PM, Winsen (Luhe), Weather by CustomWeather, © 2015

Note: Actual official high and low records may vary slightly from our data, if they occured in-between our weather recording intervals... More about our weather records


Winsen (Luhe) weather history for previous 24 hours

Time TempWeatherWind HumidityBarometerVisibility
1:20 PM
Fri, Nov 27
43 °FScattered clouds.12 mph100%29.95 "HgN/A
12:50 PM43 °FScattered clouds.12 mph100%29.98 "HgN/A
12:20 PM41 °FScattered clouds.14 mph100%29.98 "HgN/A
11:50 AM41 °FPartly sunny.10 mph100%29.98 "HgN/A
11:20 AM39 °FPartly sunny.10 mph100%30.01 "Hg4 mi
10:53 AM39 °FPartly sunny.10 mph100%30.01 "Hg4 mi
10:20 AM37 °FPartly sunny.9 mph100%30.01 "Hg4 mi
9:50 AM36 °FPartly sunny.9 mph100%30.01 "Hg4 mi
9:20 AM36 °FPartly sunny.9 mph100%30.04 "Hg4 mi
8:50 AM36 °FPartly sunny.8 mph100%30.04 "Hg4 mi
7:50 AM34 °FPassing clouds.7 mph100%30.04 "Hg4 mi
7:20 AM34 °FPassing clouds.7 mph100%30.04 "HgN/A
6:50 AM34 °FPassing clouds.5 mph100%30.04 "HgN/A
6:20 AM34 °FPassing clouds.5 mph100%30.04 "HgN/A
8:20 PM
Thu, Nov 26
36 °FPassing clouds.3 mph100%30.09 "HgN/A
7:50 PM36 °FPassing clouds.3 mph100%30.09 "HgN/A
7:20 PM37 °FClear.3 mph100%30.07 "Hg10 mi
6:50 PM37 °FClear.3 mph100%30.07 "Hg10 mi
6:20 PM37 °FPassing clouds.5 mph100%30.04 "HgN/A
5:50 PM39 °FClear.3 mph100%30.04 "Hg10 mi
5:20 PM41 °FClear.3 mph100%30.04 "Hg10 mi
4:50 PM41 °FClear.5 mph100%30.04 "Hg10 mi
4:20 PM43 °FClear.6 mph100%30.01 "Hg10 mi
3:50 PM45 °FSunny.7 mph93%30.01 "Hg10 mi
3:20 PM45 °FPassing clouds.7 mph93%30.01 "HgN/A
2:50 PM46 °FPassing clouds.8 mph87%30.01 "HgN/A
2:20 PM46 °FPassing clouds.9 mph87%29.98 "HgN/A
Weather by CustomWeather, © 2015

See weather overviewHow to use our weather pages